www.pogodaiklimat.ru
Время
(UTC), дата
09 18.09
12 18.09
15 18.09
18 18.09
21 18.09
00 19.09
03 19.09
06 19.09
09 19.09
12 19.09
15 19.09
18 19.09
21 19.09
00 20.09
03 20.09
06 20.09
09 20.09
12 20.09
15 20.09
18 20.09
21 20.09
00 21.09
03 21.09
06 21.09
09 21.09
12 21.09
15 21.09
18 21.09
21 21.09
00 22.09
03 22.09
06 22.09
09 22.09
12 22.09
15 22.09
21 22.09
00 23.09
03 23.09
06 23.09
09 23.09
12 23.09
15 23.09
18 23.09
21 23.09
00 24.09
03 24.09
06 24.09
09 24.09
12 24.09
15 24.09
18 24.09
21 24.09
00 25.09
03 25.09
Ветер
(напр.,м/с)
Видим. Явления Облачность Т
(С)
Тd
(С)
f
(%)
Тe
(С)
Тes
(С)
Комфортность P
(гПа)
Po
(гПа)
Тmin
(С)
Tmax
(С)
R
(мм)
R24
(мм)
S
(см)
С 5 40 км ясно +26.9 +16.3 52 +30 +34 душно 1018.9 1018.5
Ю 3 20 км ясно +28.1 +18.0 54 +33 +42 очень
душно
1018.5 1018.1
Ю 1 20 км 1/1 1050 м
[Cu med, cong]
+29.7 +17.3 47 +34 +38 очень
душно
1017.2 1016.8
20 км ясно +26.0 +19.8 69 1017.3 1016.9 +31.7
СВ 3 40 км ясно +25.6 +15.7 54 +29 +29 душно 1018.4 1018.0
С 2 40 км ясно +24.6 +14.5 53 +27 +27 жарко 1017.9 1017.5
СВ 5 40 км ясно +23.2 +14.3 57 +27 +27 душно 1017.7 1017.3
СВ 5 20 км 8/0
[Cs]
+22.7 +14.7 61 +26 +27 жарко 1018.0 1017.6 +22.5
нст 1 20 км 8/0
[Ac As]
+25.5 +15.2 53 +28 +32 жарко 1018.6 1018.2
Ю 2 20 км 8/0
[Ci sp]
+25.9 +16.9 58 +30 +39 душно 1017.6 1017.2
ЮВ 3 20 км 5/0
[Ac cast Cc]
+25.0 +18.9 69 +30 +32 душно 1015.9 1015.5
СВ 2 22 км 4/0
[Ac As]
+24.8 +17.3 63 +29 +29 душно 1016.0 1015.6 +28.4
С 3 30 км ясно +24.1 +16.1 61 +27 +27 жарко 1016.1 1015.6
С 3 30 км ясно +23.5 +15.4 60 +26 +26 жарко 1015.8 1015.3
СВ 4 30 км 5/0
[Ac As]
+23.0 +15.8 64 +27 +27 душно 1014.8 1014.3
С 5 18 км {дождь, морось} 9/0 2000 м
[Ac As Cs]
+21.5 +16.8 75 +25 +25 комфорт 1014.7 1014.3 +20.9 0.2
нст 1 20 км 9/1 1200 м
[Cu med, cong Ac As Cs]
+24.9 +17.1 62 +29 +33 душно 1015.5 1015.1
В 4 8000 м слаб. дождь {гроза} 10/8 750 м
[Cu Sc Ac trans]
+21.9 +17.9 78 +27 +27 душно 1015.7 1015.3
нст 1 20 км {дождь} 6/3 1050 м
[Cu med, cong Ci fib]
+24.3 +17.2 65 +28 +31 душно 1014.0 1013.6
С 2 25 км зарница 9/9 900 м
[Cu Sc]
+23.0 +17.5 71 +28 +28 душно 1014.8 1014.4 +25.0 1
СВ 3 15 км {дождь} 4/4 840 м
[Cu Sc]
+21.2 +17.3 78 +25 +25 комфорт 1015.3 1014.8
С 3 25 км зарница 8/5 900 м
[Cb cap Ac As]
+21.1 +17.1 78 +25 +25 комфорт 1015.3 1014.9 1
СВ 2 20 км 9/3 750 м
[Cu med, cong Ac As]
+20.4 +17.1 81 +24 +24 комфорт 1014.7 1014.3
СВ 4 15 км гроза, ливневой дождь 9/6 750 м
[Cu med, cong Ac trans]
+20.8 +16.6 77 +24 +24 комфорт 1015.2 1014.8 +20.1 1
С 2 25 км слаб. дождь {гроза} 10/8 600 м
[Cu Sc Ci ing]
+19.6 +17.4 87 +23 +24 комфорт 1016.3 1015.9
нст 1 30 км {дождь, гроза} 8/8 750 м
[Cu med, cong As op]
+23.4 +16.5 65 +28 +31 душно 1016.1 1015.7 3
ЮЗ 4 40 км 4/3 900 м
[Cu med, cong Ci fib]
+24.0 +16.8 64 +28 +29 душно 1014.7 1014.3
нст 1 40 км 5/5 900 м
[Cu med, cong As op]
+22.5 +17.2 72 +27 +27 душно 1015.0 1014.6 +25.1 3
С 4 30 км ясно +21.8 +16.9 74 +26 +26 душно 1015.4 1015.0
СВ 5 20 км зарница 4/1 900 м
[Cu med, cong Ac trans]
+21.2 +16.5 75 +25 +25 комфорт 1015.1 1014.7
С 3 20 км 5/5 1050 м
[Cu med, cong Ac trans]
+21.0 +16.2 74 +25 +25 комфорт 1014.3 1013.9
СВ 4 30 км зарница 9/8 600 м
[Cb cap Ci ing]
+21.2 +16.3 74 +25 +25 комфорт 1014.4 1013.9 +20.6
СВ 2 6000 м в посл. час ливневой дождь 9/9 540 м
[Cb cap Ci ing]
+20.6 +18.0 85 +25 +26 комфорт 1015.0 1014.6
нст 1 4000 м гроза, ливневой дождь 10/10 360 м
[Cb cap]
+19.5 +18.7 95 +24 +24 комфорт 1015.0 1014.6 30
В 3 25 км {гроза, дождь} 10/4 450 м
[Cu Sc Ac As]
+20.8 +17.4 81 +25 +26 комфорт 1013.2 1012.8
СВ 2 25 км слаб. дождь {гроза} 9/8 540 м
[Cu Sc As op]
+19.0 +16.8 87 +21 +21 комфорт 1012.9 1012.5
СВ 3 20 км слаб. дождь 8/8 540 м
[Cu Sc]
+18.2 +16.6 90 +19 +19 1011.7 1011.3 3
СВ 4 15 км слаб. дождь 9/9 480 м
[Cu Sc]
+18.3 +16.8 91 +19 +19 1010.8 1010.4
СВ 3 10 км {гроза, дождь} 6/6 480 м
[Cu Sc]
+18.4 +17.0 92 +19 +19 1010.6 1010.2 +17.7 22
В 4 10 км 6/6 750 м
[Cu Sc]
+20.6 +17.5 82 +24 +26 комфорт 1010.9 1010.5
В 5 25 км 5/5 750 м
[Cu med, cong]
+22.1 +17.8 77 +27 +30 душно 1010.2 1009.7
ЮВ 3 25 км 6/6 750 м
[Cu med, cong]
+22.4 +16.9 71 +27 +28 душно 1009.7 1009.3
В 3 25 км 8/8 800 м
[Cu med, cong]
+21.9 +17.6 77 +26 +26 душно 1009.4 1009.0 +22.6
СВ 4 10 км гроза, ливневой дождь 8/8 420 м
[Cb cap]
+19.7 +18.7 94 +22 +22 комфорт 1010.2 1009.7
В 7 15 км 5/5 1200 м
[Cu med, cong]
+21.8 +18.9 84 +27 +27 душно 1010.1 1009.6 8
В 5 10 км 8/8 600 м
[Cu Sc]
+21.8 +18.9 84 +27 +27 душно 1009.7 1009.2
ЮВ 4 25 км {дождь} 9/9 700 м
[Cu Sc Ac trans]
+23.2 +18.9 77 +29 +29 душно 1009.7 1009.3 +19.7 9
ЮВ 6 25 км 4/4 600 м
[Cu Sc]
+23.6 +19.0 75 +28 +30 душно 1011.0 1010.6
ЮВ 4 н/о н/о +23.7 +19.5 77 +29 +29 душно 1010.1 1009.7
В 11 12 км гроза без осадков 9/9 400 м
[Cu med, cong]
+22.5 +19.6 84 +29 +29 очень
душно
1008.4 1007.9
ЮВ 6 12 км {гроза, дождь} 8/8 540 м
[Cu Sc]
+21.3 +17.8 80 +25 +25 комфорт 1007.8 1007.4 +23.8 5
В 7 30 км {дождь} 6/6 600 м
[Cu Sc]
+21.1 +18.0 82 +25 +25 комфорт 1004.9 1004.4
СЗ 2 н/о н/о +21.2 +19.1 88 +26 +26 душно 1001.2 1000.8 25
ЮВ 3 30 км 4/4 600 м
[Cu Sc]
+21.8 +18.2 80 +27 +27 душно 999.3 998.9
Местоположение метеостанции Генуя (Италия): широта 44.42 долгота 8.85 высота над уровнем моря 3 м.
В архиве по умолчанию представлена погода в Генуе за последнюю неделю. Архивные данные за месяц целиком и за предыдущие месяцы, начиная с января 2011 года, Вы можете получить, выбрав интересующий диапазон дат из раскрывающегося списка и нажав кнопку "Найти!".
*Определитесь, кто Вы:
Внимание! Время в таблицах - всемирное. Для получения местного времени необходимо прибавить поправку, которая равна 1 ч.
Смотрите также архив погоды в соседних городах и на ближайших метеорологических станциях:
Партнеры нашего сайта:      
Пояснения к столбцам:
  • Ветер - указаны скорость ветра в м/с - средняя за 10 мин, порывы в срок и между сроками (в фигурных скобках) и направление, откуда дует ветер: С - северный,
  • СВ - северо-восточный, В - восточный, ЮВ - юго-восточный, Ю - южный, ЮЗ - юго-западный, З - западный, СЗ - северо-западный.
  • Видимость - горизонтальная дальность видимости в метрах или километрах. При видимости от 1 до 10 км при отсутствии осадков обычно наблюдается дымка, при ухудшении видимости до 1 км и менее - туман. В сухую погоду видимость может ухудшаться дымом, пылью или мглою.
  • Явления - указаны атмосферные явления, наблюдавшиеся в срок или в последний час перед сроком; фигурными скобками обозначены явления, наблюдавшиеся между сроками (за 1-3 часа до срока); квадратными скобками обозначены град или гололедные отложения с указанием их диаметра в мм.
  • Облачность - указаны через наклонную черту общая и нижняя облачность в баллах и высота нижней границы облаков в метрах; квадратными скобками обозначены формы облаков: Ci - перистые, Cs - перисто-слоистые, Cc - перисто-кучевые, Ac - высококучевые, As - высокослоистые, Sc - слоисто-кучевые, Ns - слоисто-дождевые, Cu - кучевые, Cb - кучево-дождевые. Подробнее классификацию облаков см. в Атласе облаков (PDF).
  • T - Температура воздуха - температура, измеренная на высоте 2 м над землей.
  • Td - Температура точки росы - температура, при понижении до которой содержащийся в воздухе водяной пар достигнет насыщения.
  • f - Относительная влажность воздуха - влажноcть воздуха, измеренная на высоте 2 м над землей.
  • Te - Эффективная температура - температура, которую ощущает одетый по сезону человек в тени. Характеристика душности погоды. При расчете учитывается влияние влажности воздуха и скорости ветра на теплоощущения человека.
  • Tes - Эффективная температура на солнце - температура, которую ощущает человек, с поправкой на солнечный нагрев. Характеристика знойности погоды. Зависит от высоты солнца над горизонтом, облачности и скорости ветра. Ночью, в пасмурную погоду, а также при ветре 12 м/с и более поправка равна нулю.
  • P - Атмосферное давление - приведенное к уровню моря атмосферное давление.
  • Po - Атмосферное давление - измеренное на уровне метеостанции атмосферное давление.
  • Tmin - Минимальная температура - минимум температуры воздуха на высоте 2 м над землей.
  • Tmax - Максимальная температура - максимум температуры воздуха на высоте 2 м над землей.
  • R - Количество осадков - Количество выпавших осадков за период времени, мм. При наведении курсора мыши на число - период времени, за который выпало указанное количество осадков.
  • R24 - Количество осадков - Количество выпавших осадков за 24 часа, мм.
  • S - Снежный покров - Высота снежного покрова, см. При наведении курсора мыши на число - состояние снежного покрова и степень покрытия местности в баллах.